Wind_Speed
17 18 18 19 21 22 23 24 24 24 24 24 24 24 24 23 23 23 23 23 23 24 25 26 26 26 25 25 25 24 25 25 25 25 25 24 24 23 22 22 23 25 26 28 29 29 28 25 22 18 16 14 13 11 10 9 7 7 7 4 4 5 6 7 7 7 14 21 20 20 19 15 14 13 9 7 7 7 6 5 6 9 9 9 13 14 14 13
16 16 17 18 19 20 22 23 24 25 25 24 24 25 25 24 24 24 23 23 24 24 24 25 26 27 26 26 26 25 25 25 26 26 26 25 25 24 22 23 23 23 23 24 26 29 29 28 26 23 19 16 14 12 11 9 8 9 8 4 2 4 4 5 7 11 15 18 19 19 17 14 13 11 8 7 7 7 6 5 6 9 10 10 12 13 12 13
17 17 16 17 18 19 20 22 23 24 25 25 25 25 25 25 25 25 24 24 24 24 25 25 25 26 27 27 26 26 25 25 26 27 27 26 26 24 23 23 23 22 22 22 23 26 28 29 29 27 23 20 17 15 13 11 10 10 8 4 1 3 3 4 6 13 15 16 18 15 14 15 12 10 8 8 8 8 5 3 6 9 10 11 12 12 12 11
18 18 17 17 17 18 19 20 21 23 24 25 26 26 26 26 26 26 25 25 25 25 25 25 25 26 26 27 27 27 26 26 26 26 27 26 26 25 24 23 23 22 22 21 21 22 23 26 28 28 26 24 21 18 16 14 12 11 10 7 3 1 2 2 6 14 16 14 16 15 15 14 11 9 8 8 9 7 5 2 4 8 10 11 12 12 12 11
19 19 19 19 18 19 19 20 21 21 22 24 25 26 26 27 27 27 26 26 26 26 25 25 26 26 26 27 27 27 27 26 26 26 26 26 26 26 25 23 22 22 22 22 21 20 20 22 24 25 25 25 24 21 19 17 14 13 12 10 5 2 1 1 6 15 16 14 16 15 14 13 10 8 7 9 9 5 6 4 2 7 10 10 11 13 12 11
20 20 20 20 20 20 20 20 21 21 22 23 24 26 27 28 28 28 27 27 26 26 26 26 26 26 26 27 27 27 28 27 27 26 26 26 26 26 25 23 22 22 23 23 22 21 19 19 19 21 22 24 25 24 22 19 17 15 15 11 7 5 3 1 6 14 15 13 14 13 12 12 11 10 8 9 9 4 5 4 3 6 9 9 11 13 13 12
20 20 20 20 20 20 20 21 21 22 22 23 24 25 27 28 28 28 28 28 28 27 27 26 26 26 27 27 27 27 28 28 28 27 27 26 26 26 25 23 22 23 23 23 23 22 20 17 17 18 19 23 27 27 25 23 21 20 17 13 9 8 6 4 7 12 13 12 12 12 12 13 12 10 9 10 7 5 6 5 4 7 9 9 10 13 14 13
20 20 20 20 20 20 20 21 21 22 23 24 24 25 27 28 29 29 29 29 29 28 28 27 27 26 27 27 27 27 27 28 28 28 27 27 26 26 25 23 23 24 23 23 23 22 21 18 17 18 20 23 27 28 28 27 26 23 21 15 11 11 9 8 9 11 13 12 11 12 12 12 12 9 9 9 7 6 7 6 5 7 10 10 10 12 14 14
19 19 20 20 20 20 20 20 21 22 23 24 25 26 26 27 28 29 29 29 30 30 29 28 28 27 27 27 28 28 28 27 28 29 29 28 27 27 26 24 24 25 23 22 22 22 21 19 19 19 21 23 25 27 27 28 27 25 23 18 13 10 8 9 10 12 15 14 12 13 13 11 12 11 9 8 7 8 8 6 5 8 11 11 11 12 14 14
19 19 19 20 20 21 21 21 21 21 22 23 24 25 26 27 28 29 30 30 31 31 30 29 29 28 27 27 28 29 28 27 27 29 30 30 29 28 27 25 25 25 23 22 22 22 23 23 23 22 22 22 23 25 27 28 28 26 24 20 14 9 7 9 10 14 17 15 13 14 13 12 12 12 12 10 8 7 7 6 6 8 11 12 12 12 14 14
21 20 20 19 20 21 21 22 22 22 22 23 23 24 25 26 27 28 29 31 31 31 31 31 30 29 28 27 28 29 29 28 27 29 31 31 30 29 28 27 26 25 23 22 22 24 26 27 26 25 23 21 21 23 26 27 27 26 24 21 15 10 9 9 9 15 20 16 13 14 12 12 13 13 14 13 10 8 7 8 7 8 10 12 13 13 13 14
22 21 21 20 20 21 21 22 23 23 23 24 24 24 25 25 26 27 28 30 31 32 32 32 31 30 29 29 29 28 29 28 28 30 31 32 31 30 29 28 27 26 24 23 23 25 28 28 28 26 23 20 18 20 23 23 24 25 23 20 16 12 11 10 9 14 21 17 14 16 13 12 13 13 15 15 12 10 9 9 8 9 10 11 12 13 13 13
23 22 21 21 21 21 22 23 24 24 24 24 25 25 25 25 25 26 27 29 31 32 32 32 32 32 30 30 29 28 27 28 29 31 32 32 32 31 31 29 28 27 25 24 24 25 27 28 28 25 22 19 17 18 21 21 22 23 21 18 16 14 13 12 10 12 18 18 15 15 13 11 12 13 15 15 13 13 12 10 10 9 11 11 12 13 13 13
24 23 22 22 22 22 22 23 24 24 25 25 25 26 26 26 26 26 27 28 29 31 32 32 32 32 32 31 29 28 27 28 30 32 33 33 32 32 31 30 28 28 26 25 25 25 26 26 25 23 20 18 16 17 20 20 20 21 21 18 15 15 14 12 11 13 15 16 13 14 13 12 12 13 16 16 14 15 13 11 12 10 11 11 11 12 13 13
25 24 23 23 22 22 23 23 24 25 26 25 25 26 26 26 27 27 27 27 28 29 31 31 32 32 32 32 30 29 27 28 32 35 34 33 32 32 32 30 29 29 29 28 27 26 26 25 23 21 20 18 17 18 19 19 19 20 22 19 16 16 14 12 11 12 13 14 14 14 14 14 13 14 17 17 15 15 13 12 13 12 12 12 11 11 12 13
25 24 24 23 23 22 23 23 24 25 26 26 26 26 26 27 27 27 27 27 27 28 30 30 31 32 32 32 32 30 28 28 32 36 35 34 33 32 33 32 31 31 31 29 27 26 24 23 22 21 22 20 19 19 19 19 18 20 21 18 18 17 13 13 12 10 11 12 15 14 14 14 13 14 17 18 17 16 14 13 13 13 12 12 11 12 12 12
26 24 23 22 22 22 22 23 23 25 26 27 27 26 26 26 27 27 27 27 27 27 28 30 31 31 31 32 33 32 30 30 33 36 36 34 33 33 33 33 32 31 31 30 27 25 24 22 21 22 24 23 22 20 19 18 16 17 19 17 18 18 14 14 13 11 10 10 13 13 13 13 12 13 15 19 19 17 16 16 15 15 14 13 12 12 12 13
26 24 22 21 21 21 22 22 23 24 25 26 27 27 26 25 25 26 27 27 27 27 27 29 30 30 31 33 34 35 32 32 34 37 38 35 34 34 34 34 33 33 31 30 28 27 25 24 24 26 27 26 24 20 15 16 17 18 21 19 19 19 17 16 14 13 12 11 12 13 13 13 13 10 12 20 23 18 18 18 17 16 16 15 13 13 14 14
25 23 22 20 20 21 21 22 23 23 24 25 26 26 26 25 25 25 26 27 28 27 27 27 29 30 31 32 34 35 34 33 34 37 38 37 36 35 34 35 34 33 32 30 30 30 28 27 28 29 29 28 24 19 17 21 24 24 24 22 19 19 18 16 15 14 11 11 13 14 14 14 13 11 11 18 23 20 17 18 18 17 17 16 15 14 14 15
24 22 21 20 20 20 20 21 22 23 23 24 25 25 26 25 24 25 26 27 27 27 26 26 28 30 31 32 33 34 34 34 35 37 39 38 37 36 35 35 34 33 31 31 31 32 31 29 29 29 28 28 25 21 21 23 24 25 24 22 20 18 17 16 15 15 12 11 12 13 15 14 13 14 14 17 22 21 17 17 18 18 18 17 16 15 15 15
23 21 20 19 19 20 20 21 21 22 22 23 23 24 25 25 24 24 25 26 27 27 26 27 28 30 31 32 34 34 33 34 35 37 39 39 39 38 36 35 34 31 30 31 33 33 33 30 28 27 27 29 28 25 24 22 22 24 23 23 22 20 19 18 16 16 16 14 12 14 16 16 14 15 18 18 21 22 20 17 18 18 18 18 17 16 16 16
21 20 19 19 19 19 20 20 21 21 21 21 22 22 23 23 23 23 24 25 26 26 27 27 28 29 31 33 35 34 32 33 35 37 39 39 39 38 37 35 33 31 30 33 35 35 33 30 29 28 27 30 31 29 26 23 23 26 26 25 23 23 20 16 15 16 17 15 14 16 17 17 16 16 20 20 19 23 24 19 18 19 18 18 18 17 16 16
20 19 18 18 18 18 19 19 20 20 20 20 20 21 21 22 22 23 23 24 25 25 26 27 28 30 31 32 34 33 32 32 34 37 38 39 39 39 38 36 33 32 33 34 35 34 31 29 30 29 28 31 32 31 27 25 26 28 29 25 22 21 17 13 14 13 15 16 17 17 15 16 17 17 21 22 21 24 26 23 20 20 19 19 20 17 15 16
19 18 17 17 17 18 18 18 18 19 19 18 18 19 19 20 21 21 22 23 23 24 25 27 28 29 31 32 31 31 32 33 34 36 37 38 39 39 39 38 35 33 33 33 34 32 29 29 31 30 29 31 32 32 29 27 27 29 29 25 21 18 15 16 15 11 13 16 16 15 15 15 16 16 18 23 25 25 27 26 23 21 20 19 20 18 16 16
18 17 16 16 17 17 17 17 17 17 17 17 16 17 17 17 18 19 19 19 20 22 24 26 27 28 29 30 31 32 32 33 34 35 36 38 39 39 40 39 36 34 33 32 33 31 29 31 33 31 30 32 33 33 31 28 27 28 28 24 20 17 16 17 14 9 11 15 15 15 14 15 16 15 16 22 27 28 29 27 24 22 21 20 20 19 18 17
17 15 15 15 16 17 16 15 15 15 16 16 14 13 14 14 15 17 16 15 17 18 20 22 24 26 27 28 30 31 30 30 32 33 35 37 37 38 40 39 37 34 33 33 32 30 29 31 33 33 32 33 35 34 33 31 28 27 26 23 21 18 15 15 13 12 13 15 16 14 13 16 16 13 13 18 24 30 31 28 26 24 22 21 20 19 19 19
15 14 14 15 16 15 14 13 13 14 15 15 13 11 10 11 13 13 13 12 12 12 14 18 21 23 25 27 28 27 26 27 30 31 34 36 36 38 39 39 38 36 34 35 34 30 29 31 33 34 35 35 37 36 35 32 30 28 26 23 21 17 13 13 13 16 17 17 17 15 13 16 16 13 10 12 17 26 32 31 29 27 24 22 21 19 20 20
13 13 14 15 15 14 12 11 11 12 13 14 12 8 7 10 10 9 9 7 8 10 12 15 18 20 24 27 26 25 26 27 26 27 33 36 36 37 37 38 40 39 38 38 35 31 29 31 31 33 36 37 39 38 34 32 31 30 28 23 20 18 15 16 17 18 18 17 17 16 15 14 14 13 10 9 12 18 27 31 30 28 26 23 22 20 20 20
12 12 14 14 13 12 10 10 10 11 12 11 9 5 6 8 8 7 7 6 6 9 11 11 15 18 20 22 22 21 25 28 26 25 31 34 35 35 36 37 39 40 40 39 36 33 32 30 29 31 35 36 38 37 35 34 32 31 29 25 23 21 20 20 19 19 19 18 16 17 18 16 13 11 10 10 10 11 17 25 29 29 28 27 24 22 21 19
12 13 14 13 12 10 9 9 9 11 11 8 5 3 4 4 5 5 5 7 7 7 10 11 13 15 14 15 18 20 23 28 29 27 30 33 34 35 35 36 38 39 40 39 35 33 33 32 30 31 33 34 36 38 39 39 36 31 29 28 25 21 20 21 19 19 19 18 18 18 19 18 14 11 10 10 9 10 12 18 27 30 28 28 26 24 22 20
11 13 14 12 10 9 8 8 8 10 10 6 2 2 4 3 3 3 4 7 7 6 8 8 8 10 11 14 16 19 21 25 29 30 29 31 33 35 36 37 38 38 38 37 33 31 32 35 33 30 30 34 36 38 41 42 39 33 29 28 24 21 21 22 23 23 20 19 20 19 18 19 17 14 12 11 9 11 11 11 19 28 29 28 28 27 24 22
11 13 13 10 9 8 7 7 7 10 9 4 1 3 5 5 4 5 5 7 7 6 6 4 4 9 13 16 16 17 19 21 25 29 28 27 30 34 36 37 38 37 35 33 31 30 32 35 34 30 29 34 37 37 39 43 41 37 33 29 25 24 24 25 26 25 21 20 20 19 19 19 18 17 15 13 10 10 10 8 12 22 28 30 29 28 26 24
11 12 11 9 8 7 6 6 7 9 8 3 4 4 7 7 6 7 7 8 9 9 9 8 6 11 15 18 18 18 20 19 19 25 26 25 27 31 34 34 34 33 30 27 28 30 31 33 33 32 30 33 37 37 36 38 40 40 37 32 30 29 28 27 25 22 23 23 19 17 19 18 18 18 17 16 15 12 12 11 10 15 23 30 30 28 27 26
10 11 9 8 8 6 6 6 6 8 6 4 7 5 7 9 8 9 9 11 13 10 8 10 7 9 15 18 20 20 20 17 13 16 20 22 24 28 31 30 28 27 27 27 27 29 30 30 32 33 32 33 35 38 37 36 39 41 40 36 35 31 28 27 22 17 21 23 18 18 20 20 19 19 19 18 16 15 15 14 12 11 17 29 33 30 29 29
10 10 8 7 7 6 6 5 5 7 4 7 8 4 6 9 9 10 11 13 15 9 6 10 10 3 13 19 23 21 16 12 9 8 10 14 19 23 24 24 24 24 26 28 28 29 29 29 31 33 34 33 33 36 39 39 39 41 42 40 36 32 29 25 17 12 16 20 21 23 23 22 20 19 20 17 13 13 15 14 12 10 12 23 31 31 31 32
9 8 7 6 6 6 6 5 5 5 5 9 8 5 7 8 9 11 12 14 13 8 8 11 10 3 11 20 22 19 13 10 9 9 9 13 17 20 21 24 27 27 28 29 29 31 31 29 29 32 33 34 33 33 36 39 40 41 44 42 38 36 33 24 15 14 18 20 23 25 25 23 22 21 20 17 12 12 13 12 13 12 11 18 27 29 30 33
8 8 6 5 5 6 4 3 4 5 6 9 7 6 6 6 8 10 12 13 12 11 12 12 10 10 16 22 23 20 15 10 10 12 12 16 20 22 26 32 34 32 31 31 30 32 33 30 29 30 30 33 34 33 34 38 42 43 44 43 39 37 35 27 20 19 20 21 22 24 25 24 23 23 19 14 12 12 12 13 14 14 13 15 23 28 30 31
8 8 6 4 4 5 3 2 4 4 4 4 3 5 7 7 10 10 9 11 14 17 17 16 18 19 22 24 22 21 20 18 18 17 14 17 22 27 31 34 37 35 32 33 32 32 34 31 29 30 30 32 35 35 34 34 38 42 43 43 39 36 35 33 28 25 23 22 21 23 26 25 23 22 18 15 13 13 12 12 13 15 15 14 18 25 28 28
6 8 7 5 4 4 3 2 3 4 3 1 2 5 6 7 12 11 9 13 18 22 21 19 23 24 23 22 18 20 25 26 25 25 22 21 23 28 32 35 38 36 33 34 32 32 35 33 30 30 31 33 35 35 34 33 34 38 40 42 41 37 36 36 33 31 30 26 23 22 24 23 22 21 18 15 15 13 11 11 13 14 15 16 16 20 25 27
5 5 5 4 4 3 2 2 3 3 3 1 3 4 2 4 11 13 11 15 19 23 24 22 26 26 23 22 19 20 26 27 26 28 29 27 26 28 32 36 39 36 34 34 31 31 35 33 31 33 33 34 35 33 33 33 33 34 36 40 41 39 39 38 35 34 33 30 26 24 22 21 22 22 20 19 18 17 14 13 15 14 14 16 16 17 22 26
5 3 2 4 5 4 2 2 4 2 1 3 2 3 2 3 7 10 11 14 17 21 24 24 26 27 23 22 22 22 27 26 24 27 29 29 29 31 33 35 37 36 35 34 30 30 34 32 30 33 34 36 37 34 33 33 32 30 33 38 40 40 41 40 36 34 33 31 29 27 24 24 24 23 23 23 20 19 19 18 16 15 14 15 16 16 18 22
5 3 1 2 5 5 2 3 3 1 3 3 1 1 3 2 3 5 8 10 13 18 22 23 25 26 24 23 23 24 27 26 22 22 26 29 30 33 34 35 35 35 35 34 31 29 31 32 30 31 31 33 35 36 35 34 32 29 31 38 42 41 41 41 39 37 35 33 30 28 27 28 28 26 24 22 19 18 21 22 19 18 15 13 14 16 16 16
5 4 3 2 4 5 1 4 1 4 4 3 0 1 4 2 2 1 4 6 9 13 18 20 22 24 25 25 24 24 27 28 23 19 20 25 29 32 36 36 34 34 34 33 31 29 31 33 32 30 29 30 34 38 38 37 35 30 33 41 44 42 42 42 41 38 36 35 32 29 29 30 29 27 24 22 20 19 20 20 20 20 18 15 15 16 16 16
4 4 4 4 5 6 2 3 1 3 2 1 2 5 6 2 2 1 2 5 6 9 11 14 17 21 24 26 25 25 27 29 27 20 17 22 27 30 34 36 35 35 34 33 30 29 32 35 34 31 29 30 35 39 39 39 37 33 36 43 45 44 43 41 41 39 35 35 35 32 31 31 30 28 25 22 20 20 21 21 20 21 20 19 17 16 17 18
5 5 5 4 4 5 4 2 2 2 1 2 3 5 4 2 2 2 3 5 6 6 6 7 13 17 19 23 27 28 28 27 25 21 17 18 24 29 32 34 35 35 35 35 31 27 30 35 34 30 27 29 34 39 39 39 37 36 37 41 44 46 44 40 40 40 35 34 36 34 33 34 33 30 26 21 19 19 21 22 22 23 22 20 19 18 17 18
5 6 6 5 5 5 4 3 4 3 2 2 2 2 1 1 2 3 4 6 6 5 3 4 7 9 11 19 25 27 26 24 24 24 22 21 24 28 31 33 34 35 35 36 33 28 28 32 33 30 28 28 31 36 39 39 39 38 38 39 41 45 46 44 43 42 37 35 35 34 34 36 37 33 27 22 19 18 21 23 23 24 24 21 20 19 19 19
3 4 3 5 6 5 4 2 2 1 1 2 3 2 1 1 2 3 4 6 7 7 5 5 4 2 9 17 20 21 22 23 23 22 24 27 28 27 30 34 35 35 35 36 36 33 31 32 32 30 29 29 29 31 35 38 41 41 39 39 39 40 43 44 44 43 42 38 36 35 35 36 37 35 30 24 20 21 25 26 23 22 23 22 20 19 20 21
3 4 3 2 4 5 5 5 3 1 2 3 3 2 1 1 3 2 3 5 7 8 8 7 4 2 7 13 11 11 16 21 21 18 19 27 30 27 28 34 36 36 37 39 40 38 35 33 31 31 31 31 30 29 31 37 43 45 41 39 39 39 40 42 40 40 42 42 40 38 36 35 35 35 32 28 24 24 27 27 25 24 23 22 20 19 19 20
3 4 5 3 3 5 5 6 5 2 4 5 4 2 1 0 1 1 3 4 3 5 10 9 5 4 5 8 9 9 12 17 19 17 17 23 28 27 25 31 37 39 40 42 42 42 38 33 31 32 33 32 30 28 30 34 42 48 46 41 41 41 41 41 38 38 40 41 41 40 37 36 36 35 32 29 27 25 25 24 23 22 21 19 19 18 18 18
3 4 5 3 3 4 5 5 4 2 5 6 6 4 1 2 3 4 3 2 2 5 9 7 5 6 5 4 5 7 10 13 15 16 16 17 23 26 24 28 37 42 43 44 43 44 42 36 33 34 33 32 30 28 28 29 36 45 48 46 45 44 44 43 40 39 40 41 41 40 38 37 37 35 32 29 28 26 23 20 18 17 17 18 18 18 19 19
4 4 5 4 4 5 5 3 3 3 5 7 8 5 2 1 2 5 5 4 4 5 5 3 2 3 4 4 3 4 6 7 8 11 13 14 18 20 19 23 31 39 44 45 44 45 45 39 36 35 33 29 28 27 27 26 28 34 42 47 46 44 44 44 43 42 41 42 41 40 38 36 35 34 31 29 30 29 25 21 17 16 18 20 21 21 22 22
4 4 5 5 5 5 3 2 3 5 5 8 9 7 6 4 2 3 4 6 6 5 3 2 2 2 4 5 6 6 7 7 9 11 14 15 17 18 18 21 26 33 41 46 44 44 45 43 39 38 35 29 25 24 25 26 25 28 35 42 44 42 41 43 46 45 44 44 43 41 40 37 36 35 34 32 32 32 29 25 22 19 18 20 23 25 25 26
Wind_Direction
289 284 280 276 272 268 264 262 261 260 259 257 257 256 255 253 250 247 243 239 237 235 233 233 232 230 228 228 228 226 224 223 221 221 221 222 224 224 223 223 223 224 224 225 224 225 225 226 224 219 211 205 202 197 204 205 202 228 239 261 333 357 357 17 47 84 121 136 142 143 142 144 148 146 143 127 113 122 118 100 97 105 108 122 131 133 138 141
296 290 285 280 276 271 268 264 262 260 258 257 257 256 255 254 252 250 246 242 239 236 234 232 232 231 229 228 227 227 225 224 223 222 221 222 224 223 222 222 224 224 224 223 223 224 225 226 225 222 217 213 211 205 208 208 206 229 240 244 340 12 15 26 72 112 127 136 140 141 143 150 154 154 145 123 126 127 120 117 110 111 109 116 129 131 137 142
299 295 290 285 279 275 271 268 264 261 259 257 256 255 254 254 252 250 248 245 241 238 235 233 232 231 230 228 227 226 225 224 224 224 223 222 224 224 221 222 223 224 224 222 222 223 224 225 225 224 220 217 217 212 211 213 211 225 239 238 312 28 40 43 93 128 136 139 140 140 146 156 162 163 146 133 143 129 122 136 124 123 113 118 129 129 135 140
298 295 292 288 284 279 275 271 268 264 261 258 256 255 254 253 252 250 249 247 244 241 237 234 232 231 230 229 227 226 225 225 224 224 224 223 224 224 221 222 222 222 223 222 222 223 223 225 226 225 222 219 220 219 215 215 216 224 236 237 230 27 42 60 120 140 146 146 146 145 152 163 166 159 144 147 154 127 126 154 138 133 122 125 130 129 135 138
296 293 291 289 285 281 277 273 271 268 263 259 256 255 253 252 251 250 248 247 245 243 239 236 234 231 230 230 228 227 225 225 224 224 224 223 223 223 221 221 220 220 221 221 221 221 221 222 225 226 224 221 221 222 221 218 217 223 234 235 224 198 89 81 140 149 154 152 151 151 160 168 158 149 146 152 157 135 133 146 157 140 127 131 133 132 137 138
294 291 289 287 284 281 278 274 271 268 265 261 257 254 253 251 250 249 248 246 245 243 241 238 235 232 231 230 229 227 226 224 224 224 224 223 223 223 221 219 217 217 218 219 219 218 218 217 218 221 222 221 219 219 220 221 218 221 232 236 226 202 175 201 162 162 165 159 159 161 165 165 155 156 160 158 160 149 134 136 165 146 130 135 137 136 139 141
293 291 289 287 284 281 277 274 271 268 265 262 258 255 252 250 249 248 247 246 245 244 242 240 238 235 232 230 229 227 227 225 224 223 223 223 223 223 221 218 217 216 216 216 216 215 215 213 211 210 213 217 217 216 214 215 214 217 225 229 227 208 196 202 170 172 180 172 169 168 167 166 166 170 162 162 169 158 144 144 168 153 135 138 140 137 139 142
293 290 289 287 285 282 278 274 271 268 265 262 260 257 253 250 248 247 246 245 245 243 242 240 238 237 234 231 229 227 226 225 224 223 223 223 223 223 221 216 216 217 215 214 214 213 211 209 206 202 206 213 216 216 214 213 211 213 218 218 221 212 207 208 176 176 190 184 175 172 174 169 170 176 163 164 169 156 155 152 161 153 138 139 140 136 135 138
294 290 287 286 285 283 280 275 271 268 265 263 260 258 255 251 248 246 245 243 243 242 241 240 238 237 236 233 230 228 226 224 223 223 222 222 221 222 220 215 216 218 214 212 211 210 208 205 205 202 204 210 214 214 215 215 212 212 216 215 216 213 213 213 190 185 193 190 181 175 181 177 170 175 173 175 170 162 165 157 157 152 141 141 143 138 134 136
297 292 287 284 283 282 281 278 273 269 266 263 261 259 256 253 249 246 244 242 241 241 240 239 238 236 235 234 232 229 226 223 222 222 222 221 220 221 219 214 214 216 212 210 207 205 203 202 206 208 206 207 209 210 212 215 212 209 212 211 208 203 201 206 197 191 191 192 187 178 184 188 180 175 173 180 181 177 179 167 163 157 146 143 145 141 137 140
300 295 290 286 282 280 280 279 275 271 267 265 262 260 257 254 251 247 244 242 240 239 238 239 238 236 234 233 232 230 227 223 221 222 222 221 220 220 220 214 212 214 210 207 205 203 203 204 207 209 208 207 206 207 210 213 211 205 205 203 196 188 188 195 196 191 188 189 190 186 187 191 191 183 177 181 182 185 188 173 167 166 155 147 146 145 142 145
300 297 293 288 284 280 278 277 276 273 269 266 263 261 258 256 252 248 245 242 240 238 236 237 237 237 235 233 231 230 228 223 220 222 223 221 220 219 220 216 211 212 209 205 204 204 207 209 209 207 208 211 209 205 207 212 209 202 201 196 187 182 185 188 186 187 189 188 189 192 189 187 193 193 186 184 178 181 192 178 171 173 165 155 150 149 148 147
299 295 292 288 284 281 278 276 275 274 270 267 265 263 260 257 254 250 246 242 240 238 236 235 235 236 236 233 231 229 227 223 220 221 222 221 220 219 220 217 212 211 209 206 205 206 209 213 212 208 205 212 216 205 202 211 209 198 195 189 178 177 182 183 172 176 190 188 185 191 192 187 192 196 192 189 184 185 190 179 175 177 170 164 155 153 153 149
298 294 290 287 284 281 279 276 275 274 271 268 265 263 262 260 257 253 248 243 240 238 236 234 233 234 235 234 232 228 223 220 220 221 222 221 219 218 219 218 214 211 209 207 206 207 210 213 214 210 203 207 216 208 203 209 205 192 188 186 176 175 177 172 158 160 182 193 191 188 192 195 196 204 201 195 192 186 184 177 178 181 175 171 161 158 157 150
297 293 290 287 284 282 281 278 276 274 272 269 265 262 261 260 258 256 252 246 241 237 236 234 233 232 232 232 230 226 219 216 220 221 220 220 219 217 218 217 214 211 209 207 207 207 209 211 212 209 200 201 209 208 209 209 202 189 186 187 182 183 181 172 163 155 168 193 199 190 195 203 201 209 207 200 197 187 182 180 181 184 180 177 168 163 159 152
296 292 290 289 286 285 282 280 277 274 272 269 266 261 258 257 257 256 254 250 244 238 235 234 232 231 230 229 228 225 216 211 219 223 221 219 218 217 216 216 213 211 210 209 208 207 208 206 207 206 198 198 202 205 212 211 202 191 186 187 187 190 191 188 186 171 163 183 196 195 201 208 210 217 212 204 200 188 184 186 185 188 185 181 176 168 159 154
295 292 291 290 288 286 283 280 277 274 272 270 267 263 259 256 254 255 254 252 248 241 236 234 232 230 228 226 225 224 215 208 214 223 222 218 218 217 216 216 214 212 211 209 208 207 207 202 198 203 199 196 196 199 209 210 210 199 187 187 190 193 200 203 200 190 182 182 187 192 199 207 214 223 220 211 204 191 186 189 189 191 189 185 181 172 164 160
295 293 292 290 287 285 283 279 276 273 271 269 268 265 262 257 254 253 252 251 249 243 238 234 232 229 227 225 224 223 218 210 211 219 222 217 216 216 215 216 214 212 210 208 208 205 205 200 194 198 199 195 191 192 201 203 210 206 191 187 191 192 198 205 203 196 200 198 193 193 196 206 210 215 219 210 206 199 189 188 189 192 189 187 186 178 170 166
297 295 293 290 287 284 281 278 276 273 271 268 267 266 264 260 255 251 250 248 247 245 240 236 232 229 227 225 225 224 220 214 210 216 220 218 215 215 214 215 215 213 210 207 208 206 205 200 196 197 195 191 186 187 197 199 205 204 193 188 191 191 193 200 200 196 206 208 202 202 204 208 202 203 217 209 205 205 196 186 187 192 190 187 189 183 176 173
298 296 293 289 286 283 281 279 277 275 272 270 268 266 264 261 257 253 249 247 246 245 242 237 232 229 227 225 225 224 220 215 210 212 218 218 216 214 214 215 215 213 209 206 208 208 207 202 199 199 193 187 184 190 200 201 206 207 196 190 192 192 192 198 197 197 210 210 203 208 213 214 202 197 207 211 209 209 203 192 186 190 191 189 190 186 181 179
297 294 290 287 285 283 281 280 279 277 275 272 270 268 265 262 260 256 251 247 245 243 241 237 233 230 227 224 223 222 221 217 211 210 214 217 216 214 214 214 214 212 208 207 207 208 208 203 200 200 194 186 186 193 198 197 203 209 201 193 194 193 193 198 194 196 209 209 206 211 215 220 217 205 203 207 211 211 209 198 189 191 191 192 193 189 184 182
296 292 287 286 284 284 284 283 282 281 279 276 273 271 268 264 262 258 252 248 244 241 240 237 234 230 227 227 224 220 219 218 214 211 212 215 215 215 214 213 212 209 208 208 208 208 207 203 200 200 194 188 189 192 195 193 196 206 204 195 194 195 195 197 194 202 213 212 213 216 215 217 221 218 211 210 209 210 212 202 191 194 193 192 194 191 188 183
293 288 286 286 286 287 288 287 287 286 284 281 278 274 270 267 264 259 254 249 244 240 237 234 232 230 227 227 226 221 216 216 217 213 211 212 213 213 215 214 211 208 209 208 208 207 205 203 201 199 193 190 191 191 191 190 194 205 204 193 191 193 194 197 196 208 221 218 219 220 219 217 218 220 216 216 213 209 212 204 192 195 193 192 194 190 189 187
290 287 287 289 290 292 293 293 294 292 289 286 282 278 272 268 264 260 255 249 244 239 234 232 230 229 228 226 226 223 216 212 215 215 211 210 211 212 213 214 211 209 210 209 208 205 201 202 202 198 193 190 190 191 191 188 194 206 205 192 183 184 191 200 199 210 219 214 219 222 222 218 217 219 215 216 215 209 210 205 193 194 196 192 194 190 187 192
287 288 291 293 295 298 299 300 299 295 293 290 287 282 274 268 263 258 253 247 243 238 233 230 227 226 227 225 222 222 218 213 212 214 212 210 209 210 212 212 211 210 209 210 209 203 199 201 201 197 192 189 189 193 192 187 192 204 206 196 183 182 193 197 199 214 210 204 211 214 213 209 207 213 213 212 212 207 208 205 194 194 197 194 195 193 188 193
289 293 295 298 301 303 305 303 301 300 298 295 291 283 272 266 260 255 249 241 238 236 231 227 224 223 224 224 221 220 219 214 211 211 211 211 209 208 210 211 210 210 209 210 208 203 200 202 202 197 192 187 187 194 195 187 187 196 202 200 189 187 195 191 199 219 210 202 206 203 201 202 200 202 206 206 209 209 205 201 198 197 196 195 197 196 191 194
293 297 299 304 306 307 307 304 305 307 307 306 301 289 273 261 254 250 243 235 232 228 220 220 219 219 221 223 220 215 212 212 211 210 210 210 208 207 208 208 209 209 209 210 207 201 200 203 202 199 194 187 185 194 198 188 183 191 198 200 193 189 192 191 204 219 214 206 204 201 204 209 206 201 199 199 207 210 204 200 202 202 196 196 199 196 194 196
298 301 304 308 310 310 309 306 310 314 315 314 306 291 267 252 244 238 230 220 219 210 202 207 211 213 218 221 218 208 204 203 201 203 208 209 209 206 206 207 208 208 209 211 207 199 200 204 203 200 198 190 184 192 198 187 181 191 196 197 194 191 189 192 206 217 213 204 199 198 203 209 205 197 196 202 203 206 206 205 207 207 202 200 200 195 193 196
302 305 308 312 314 312 310 309 313 321 322 318 307 277 245 242 227 214 206 181 181 194 189 190 199 205 213 217 215 207 204 201 193 194 202 205 207 206 204 206 208 209 211 211 207 200 198 201 202 201 201 194 186 188 193 187 182 190 195 192 192 195 195 194 204 214 208 196 192 193 196 200 197 188 189 199 196 197 209 211 212 212 205 201 200 195 193 196
305 308 312 317 318 314 311 310 317 329 329 327 316 257 218 226 209 195 187 163 158 176 176 179 193 199 197 195 202 205 206 203 194 191 200 201 201 203 204 205 207 210 213 212 209 204 200 198 198 201 201 197 190 187 190 189 183 186 194 192 193 197 198 199 200 209 207 195 194 197 195 194 194 193 191 187 184 189 205 213 215 214 207 201 200 199 200 201
307 311 317 321 321 318 315 312 321 333 336 351 347 220 171 160 177 139 125 145 135 135 158 173 193 189 172 171 187 197 204 207 196 190 198 201 198 199 201 204 205 209 213 213 209 205 205 202 196 195 199 199 195 190 192 191 181 182 191 193 197 198 199 206 205 205 205 197 198 201 198 196 195 199 199 192 191 194 199 209 214 215 211 207 205 206 208 206
309 316 322 325 325 321 318 319 325 335 343 18 82 183 148 132 134 110 119 141 118 95 114 135 169 166 167 174 180 186 197 209 201 190 193 198 198 200 201 202 204 206 210 212 209 204 207 209 198 188 194 201 197 192 195 193 182 182 189 192 199 200 200 207 206 205 204 198 197 196 197 199 199 202 204 203 206 203 202 202 206 211 212 211 209 209 211 208
312 322 328 330 327 321 328 333 330 340 348 40 116 138 136 132 134 128 134 132 97 71 71 83 130 162 171 177 176 181 191 198 197 191 191 192 195 200 202 202 203 203 203 203 203 203 206 211 204 190 190 200 198 193 194 192 187 188 190 191 198 201 203 206 202 205 208 203 199 198 200 201 202 207 209 209 212 209 206 206 206 209 210 211 210 209 210 208
317 328 332 331 328 331 346 339 334 347 355 89 104 115 143 145 149 143 140 126 101 82 73 67 83 159 175 177 173 178 188 189 181 181 189 191 192 198 200 199 200 199 196 192 192 196 201 206 205 196 192 198 199 195 192 188 188 191 190 192 199 201 205 206 202 206 213 211 212 215 213 208 206 211 213 214 219 219 216 213 215 216 207 207 209 210 209 207
323 332 333 330 331 347 354 340 345 360 20 97 97 115 153 151 153 149 149 134 111 107 116 70 49 130 177 176 171 170 175 169 145 144 175 186 190 196 195 190 190 189 189 188 185 187 192 197 201 200 197 197 196 197 195 188 186 190 191 192 196 200 203 204 201 200 206 211 215 220 224 218 214 215 214 214 222 229 228 220 218 218 207 206 208 208 208 207
328 333 334 331 338 359 360 349 10 29 77 110 123 155 154 152 160 157 154 142 126 129 130 93 60 87 168 168 163 157 157 154 136 129 149 166 174 183 182 176 177 177 177 180 179 180 184 190 199 202 201 199 195 195 197 191 187 190 193 191 193 199 199 194 191 189 193 203 207 214 222 220 218 220 218 217 222 229 228 222 219 214 206 208 208 207 208 210
330 333 334 332 348 11 8 3 49 73 106 128 153 182 176 168 168 168 159 145 145 156 148 130 124 135 148 158 161 156 156 168 156 141 148 162 162 166 172 173 174 176 176 177 178 181 184 189 197 197 197 200 198 196 198 195 190 192 196 193 193 200 199 191 190 192 195 202 205 212 218 218 220 224 224 224 230 231 226 222 221 213 205 207 209 208 210 212
335 333 330 339 358 9 359 8 72 91 123 153 186 216 212 181 163 174 168 152 156 160 161 157 153 150 147 153 168 171 172 182 174 161 170 171 162 165 171 174 176 178 181 181 182 185 187 192 198 194 189 195 198 197 200 201 197 197 198 196 195 199 198 194 196 200 201 204 207 214 219 217 220 224 224 226 230 231 226 217 212 209 209 211 210 209 209 208
341 333 328 338 341 346 359 37 82 89 97 122 240 232 228 184 172 186 175 162 166 167 170 168 163 167 163 161 182 189 187 190 179 176 184 173 166 172 172 175 179 179 180 183 183 186 188 193 200 195 187 190 196 198 201 205 205 203 201 200 199 198 195 193 197 205 209 209 211 215 219 219 222 225 225 222 220 221 221 213 205 203 207 212 213 210 208 204
335 336 333 322 307 326 7 82 92 78 94 142 249 250 255 161 183 201 185 171 175 176 179 176 171 179 181 180 195 200 199 198 183 180 180 168 171 179 173 176 182 180 179 180 181 186 190 192 199 199 191 187 193 198 201 204 208 206 202 202 202 200 196 193 196 205 210 213 217 220 225 226 226 229 228 221 215 211 212 213 208 203 202 206 210 212 211 207
321 344 352 306 294 291 282 97 80 59 150 182 240 286 310 131 180 214 203 184 184 186 190 187 181 186 191 195 201 203 205 203 189 182 176 168 173 179 175 178 183 182 181 180 184 189 189 191 198 202 196 188 189 195 197 200 204 202 200 203 204 202 200 198 200 205 208 212 217 220 226 231 230 229 227 223 219 213 214 220 218 209 202 200 205 210 211 210
319 340 352 300 293 272 248 84 83 221 227 200 148 321 266 184 171 227 223 201 192 195 202 201 193 191 197 205 209 204 202 203 195 185 178 178 181 178 179 183 183 183 184 185 192 193 188 192 201 205 201 191 189 194 194 195 196 195 197 203 205 203 203 203 204 208 210 212 215 216 220 227 230 229 227 225 223 218 217 223 224 217 207 202 210 215 211 210
324 330 306 310 302 269 198 89 118 233 235 234 120 251 248 228 140 210 233 215 200 200 207 211 206 201 199 205 212 207 200 201 200 191 182 188 189 182 182 185 184 185 186 189 196 194 188 193 200 204 202 192 188 193 198 198 196 193 198 203 203 203 204 203 203 207 211 212 214 216 217 221 224 226 227 226 223 220 219 220 223 221 216 214 215 216 210 205
321 312 287 287 295 275 211 133 195 233 229 256 246 231 232 210 116 126 232 227 206 200 211 218 213 207 203 204 209 209 203 202 203 199 191 192 194 190 186 187 188 188 188 192 195 191 189 191 193 195 194 190 189 192 197 200 197 194 201 206 204 201 202 203 203 205 209 211 212 216 219 220 222 222 223 224 222 222 224 223 224 223 221 219 215 209 207 205
313 308 290 274 286 292 271 196 173 192 224 282 267 246 235 209 152 156 209 222 206 202 225 224 206 205 210 207 203 202 201 200 200 199 197 191 192 195 193 189 189 188 189 192 191 184 185 189 190 191 190 188 191 194 195 197 194 192 200 207 206 203 202 203 204 204 208 210 212 216 219 221 222 220 221 226 225 226 229 227 224 223 221 221 218 214 213 209
316 316 319 315 306 300 281 211 167 172 211 235 252 242 187 192 193 181 202 215 210 213 252 245 210 201 200 191 183 183 187 188 190 196 203 197 190 194 197 194 189 186 188 192 190 184 182 183 185 189 191 190 192 196 197 195 190 190 196 201 203 204 205 206 206 207 210 212 213 217 220 220 221 220 221 226 228 229 230 226 223 222 221 223 225 223 219 212
303 299 318 330 315 304 298 253 201 200 215 210 225 216 132 258 239 214 219 220 215 218 239 263 268 217 182 177 166 165 174 179 181 189 201 200 193 193 199 198 192 187 188 192 193 190 182 176 180 187 190 193 196 197 197 194 190 190 195 199 200 201 203 205 209 211 214 216 217 221 223 221 221 222 223 225 227 226 222 217 216 215 216 219 222 223 220 214
275 272 269 314 314 314 319 310 304 253 193 205 220 204 135 260 263 241 215 225 223 221 226 240 271 265 194 188 176 167 178 183 181 181 191 196 195 196 199 199 195 190 190 193 196 195 184 173 177 186 186 190 196 195 195 195 192 192 197 201 203 203 201 203 207 211 215 218 221 224 226 225 224 224 225 223 220 218 212 207 208 209 209 214 218 221 222 216
248 264 273 297 321 322 317 315 320 275 213 218 224 217 123 141 264 154 190 232 238 222 226 225 224 233 204 184 188 190 190 192 190 189 193 196 197 198 198 198 195 191 192 194 196 197 190 177 177 186 187 189 194 193 192 194 194 195 198 202 206 207 205 205 207 208 210 214 219 221 224 227 225 223 223 218 214 213 208 204 207 209 210 216 220 223 226 223
241 250 267 276 289 302 304 313 327 279 236 233 234 236 119 85 74 84 132 191 165 207 230 229 212 221 213 185 189 188 186 190 189 189 193 198 199 197 196 196 193 191 193 196 197 199 198 189 182 187 190 191 193 191 188 191 195 198 200 205 209 209 208 210 211 210 210 212 216 219 221 224 224 221 220 218 214 212 210 209 214 217 218 220 219 220 225 227
242 251 265 267 273 294 303 313 317 286 250 243 243 239 218 145 98 89 103 127 152 192 227 241 222 206 203 212 210 169 166 167 157 162 177 193 201 199 196 196 195 193 195 198 199 198 199 195 187 187 191 193 196 197 196 195 198 201 204 209 214 216 215 215 216 216 215 216 218 220 222 225 227 224 223 223 221 218 219 223 228 228 226 224 220 219 221 224
237 245 252 259 269 283 299 324 305 283 260 251 247 232 219 220 192 130 107 109 130 157 166 164 169 148 168 196 196 176 168 160 153 157 169 184 196 199 198 200 199 198 199 202 202 198 198 197 191 189 193 197 201 205 207 207 206 208 209 212 217 222 223 222 221 220 220 220 221 223 225 228 231 229 228 228 226 224 224 225 228 229 226 223 222 223 223 224
Height
5855 5855 5855 5855 5855 5855 5855 5856 5856 5856 5857 5857 5858 5858 5859 5859 5860 5861 5861 5862 5862 5864 5865 5866 5867 5868 5869 5870 5871 5873 5874 5875 5876 5876 5877 5878 5879 5880 5882 5883 5884 5885 5887 5889 5891 5892 5894 5895 5897 5899 5900 5901 5902 5903 5904 5904 5904 5904 5905 5905 5904 5904 5903 5902 5902 5901 5899 5899 5902 5904 5905 5907 5908 5910 5912 5912 5913 5914 5914 5914 5915 5915 5916 5917 5918 5919 5920 5921
5853 5853 5853 5852 5852 5852 5852 5852 5853 5853 5854 5854 5855 5855 5856 5856 5857 5858 5859 5859 5860 5861 5862 5863 5864 5866 5867 5868 5869 5870 5871 5872 5873 5874 5875 5876 5877 5879 5880 5881 5882 5884 5886 5887 5889 5890 5892 5894 5895 5897 5899 5900 5902 5903 5903 5903 5904 5904 5904 5904 5904 5904 5903 5903 5903 5903 5902 5902 5904 5905 5906 5908 5909 5911 5912 5912 5913 5914 5914 5914 5915 5915 5916 5917 5918 5920 5922 5922
5851 5850 5850 5850 5850 5850 5849 5849 5850 5850 5851 5851 5852 5852 5853 5853 5854 5855 5856 5857 5858 5858 5859 5860 5862 5863 5864 5866 5867 5868 5869 5870 5871 5872 5873 5874 5875 5877 5879 5880 5881 5882 5884 5886 5887 5888 5890 5891 5893 5895 5898 5899 5900 5901 5902 5903 5904 5904 5904 5904 5905 5904 5904 5903 5904 5904 5904 5904 5906 5907 5908 5909 5910 5911 5911 5912 5913 5914 5914 5915 5915 5915 5916 5918 5919 5920 5922 5923
5849 5848 5848 5848 5847 5847 5847 5847 5847 5847 5847 5848 5848 5849 5849 5850 5851 5852 5853 5854 5855 5856 5857 5858 5859 5860 5862 5863 5864 5866 5867 5868 5869 5870 5871 5872 5874 5875 5877 5878 5880 5881 5883 5884 5886 5887 5888 5890 5891 5894 5896 5898 5899 5900 5902 5902 5903 5904 5903 5904 5904 5905 5904 5904 5904 5905 5905 5906 5907 5908 5909 5910 5910 5911 5911 5912 5913 5914 5915 5915 5915 5915 5916 5918 5919 5920 5922 5923
5847 5846 5846 5845 5845 5844 5844 5844 5844 5844 5844 5845 5845 5845 5846 5846 5847 5848 5850 5851 5852 5853 5854 5855 5856 5857 5859 5860 5862 5863 5865 5865 5867 5868 5869 5870 5872 5873 5875 5877 5878 5880 5881 5883 5884 5886 5887 5889 5890 5893 5895 5897 5898 5900 5900 5901 5903 5904 5902 5902 5904 5904 5904 5904 5904 5905 5905 5906 5908 5908 5909 5909 5910 5911 5912 5913 5914 5915 5916 5916 5916 5916 5916 5917 5919 5920 5922 5923
5845 5844 5843 5843 5842 5842 5841 5841 5841 5841 5841 5841 5841 5842 5842 5843 5844 5845 5846 5848 5849 5850 5851 5853 5853 5855 5856 5857 5859 5861 5862 5863 5864 5865 5866 5868 5869 5871 5873 5875 5877 5878 5879 5881 5883 5884 5886 5887 5889 5891 5894 5895 5896 5897 5898 5900 5902 5903 5902 5902 5903 5904 5904 5904 5904 5904 5904 5905 5907 5907 5908 5909 5910 5912 5913 5914 5914 5915 5916 5917 5917 5917 5916 5917 5919 5920 5921 5923
5842 5841 5840 5840 5839 5839 5838 5838 5837 5837 5837 5837 5838 5838 5838 5839 5840 5841 5843 5844 5845 5847 5848 5850 5851 5852 5853 5854 5856 5858 5859 5861 5862 5863 5864 5866 5867 5869 5871 5874 5875 5876 5877 5879 5881 5883 5884 5886 5888 5889 5891 5893 5893 5894 5896 5897 5899 5900 5901 5901 5902 5902 5903 5904 5904 5904 5904 5904 5906 5907 5908 5909 5910 5912 5913 5914 5914 5915 5916 5917 5918 5918 5917 5917 5919 5920 5921 5923
5840 5839 5838 5837 5836 5836 5835 5835 5834 5834 5834 5834 5834 5834 5835 5835 5836 5838 5839 5840 5842 5843 5845 5847 5848 5850 5851 5852 5853 5854 5856 5858 5859 5861 5862 5863 5865 5867 5869 5872 5873 5873 5876 5877 5879 5881 5883 5885 5886 5887 5888 5889 5890 5892 5893 5894 5896 5898 5899 5899 5900 5900 5902 5903 5903 5903 5903 5904 5905 5906 5908 5909 5910 5911 5912 5913 5914 5915 5916 5918 5919 5919 5918 5918 5919 5920 5921 5923
5837 5836 5835 5834 5833 5832 5832 5831 5831 5831 5830 5830 5830 5830 5831 5831 5833 5834 5835 5836 5838 5839 5841 5843 5845 5847 5848 5849 5850 5852 5853 5855 5856 5858 5859 5861 5862 5864 5867 5869 5870 5872 5874 5876 5878 5880 5883 5884 5885 5885 5886 5887 5889 5890 5892 5893 5895 5897 5897 5898 5899 5900 5902 5902 5902 5901 5902 5903 5905 5906 5907 5908 5910 5910 5912 5913 5914 5915 5916 5918 5919 5919 5919 5919 5920 5920 5921 5923
5834 5833 5832 5831 5830 5829 5829 5828 5827 5827 5827 5827 5826 5827 5827 5828 5829 5830 5831 5832 5834 5835 5837 5839 5841 5843 5845 5846 5848 5849 5850 5852 5853 5855 5856 5858 5860 5862 5864 5867 5868 5870 5873 5875 5877 5879 5880 5882 5882 5883 5883 5885 5887 5888 5890 5890 5893 5895 5895 5897 5898 5901 5903 5903 5901 5901 5901 5902 5903 5905 5906 5908 5909 5910 5911 5912 5914 5915 5916 5917 5918 5919 5920 5920 5921 5921 5922 5923
5831 5830 5829 5828 5827 5826 5825 5824 5824 5823 5823 5823 5823 5823 5823 5824 5825 5826 5827 5828 5829 5831 5833 5835 5837 5839 5841 5843 5844 5845 5847 5849 5851 5852 5853 5855 5857 5859 5861 5864 5866 5868 5871 5873 5875 5876 5877 5878 5879 5880 5882 5883 5885 5886 5887 5888 5891 5893 5894 5895 5898 5900 5902 5903 5902 5902 5901 5901 5902 5904 5905 5907 5908 5909 5910 5912 5913 5914 5915 5916 5918 5919 5920 5920 5921 5922 5923 5924
5827 5826 5825 5825 5824 5823 5822 5821 5820 5820 5820 5819 5819 5819 5819 5820 5821 5822 5823 5824 5826 5827 5829 5831 5833 5835 5838 5839 5841 5843 5845 5847 5849 5849 5850 5852 5855 5857 5859 5861 5864 5866 5868 5870 5872 5874 5874 5875 5877 5879 5881 5884 5885 5885 5886 5887 5890 5892 5893 5895 5898 5899 5901 5902 5901 5902 5901 5900 5901 5902 5903 5906 5907 5909 5910 5911 5913 5914 5915 5916 5917 5919 5920 5921 5921 5922 5923 5924
5824 5823 5822 5821 5820 5819 5818 5817 5817 5816 5816 5816 5815 5815 5816 5816 5817 5818 5819 5820 5822 5823 5825 5827 5829 5831 5833 5835 5838 5841 5843 5844 5846 5846 5848 5850 5852 5854 5856 5859 5862 5864 5866 5868 5870 5872 5873 5874 5876 5878 5881 5883 5885 5885 5886 5887 5889 5891 5893 5895 5897 5898 5900 5901 5900 5901 5902 5900 5901 5902 5903 5905 5906 5908 5910 5911 5912 5913 5914 5915 5916 5918 5920 5920 5921 5922 5923 5925
5820 5819 5818 5817 5816 5815 5814 5814 5813 5813 5812 5812 5812 5812 5812 5812 5813 5814 5815 5816 5818 5819 5821 5823 5825 5827 5829 5832 5835 5838 5840 5841 5842 5843 5845 5847 5849 5851 5853 5856 5859 5862 5864 5866 5868 5869 5871 5873 5876 5878 5881 5883 5884 5885 5885 5886 5889 5891 5892 5895 5897 5898 5899 5900 5899 5899 5901 5902 5902 5903 5904 5905 5906 5908 5909 5910 5912 5913 5913 5914 5916 5917 5919 5920 5921 5922 5923 5925
5817 5815 5814 5813 5812 5811 5811 5810 5810 5809 5809 5808 5808 5808 5808 5809 5809 5810 5811 5812 5814 5815 5817 5819 5821 5823 5825 5828 5831 5834 5837 5838 5839 5840 5842 5844 5847 5849 5851 5854 5857 5859 5861 5863 5865 5867 5869 5872 5875 5878 5880 5882 5883 5884 5885 5886 5888 5890 5892 5894 5896 5898 5898 5898 5899 5899 5900 5901 5902 5902 5903 5904 5906 5907 5909 5910 5912 5912 5913 5914 5915 5917 5918 5919 5921 5922 5923 5925
5813 5811 5810 5809 5808 5808 5807 5807 5806 5805 5805 5804 5804 5804 5805 5805 5805 5806 5807 5808 5810 5812 5813 5815 5816 5819 5821 5823 5826 5830 5833 5836 5836 5837 5839 5842 5844 5846 5848 5851 5853 5856 5858 5861 5863 5866 5868 5871 5874 5877 5879 5880 5882 5883 5883 5885 5887 5889 5891 5894 5895 5897 5897 5897 5899 5900 5899 5899 5900 5901 5903 5904 5905 5906 5908 5910 5912 5912 5912 5913 5914 5916 5918 5919 5920 5922 5923 5925
5809 5808 5807 5806 5805 5804 5803 5803 5802 5802 5801 5800 5800 5800 5800 5801 5802 5803 5803 5804 5806 5808 5809 5810 5812 5815 5816 5819 5822 5824 5828 5832 5832 5833 5836 5839 5841 5843 5846 5848 5851 5853 5856 5859 5862 5864 5866 5869 5872 5875 5877 5878 5880 5882 5883 5885 5888 5890 5891 5893 5894 5895 5896 5897 5898 5899 5899 5899 5900 5901 5903 5904 5904 5906 5908 5910 5911 5911 5912 5913 5913 5915 5917 5918 5920 5921 5923 5924
5806 5805 5804 5802 5801 5800 5800 5799 5798 5798 5797 5796 5796 5796 5796 5797 5798 5799 5800 5800 5802 5803 5805 5806 5808 5810 5812 5815 5817 5819 5823 5828 5829 5829 5831 5836 5838 5840 5843 5845 5848 5851 5854 5857 5859 5862 5864 5867 5869 5871 5873 5875 5878 5881 5883 5885 5886 5888 5890 5891 5891 5893 5894 5895 5897 5898 5899 5899 5900 5901 5902 5903 5903 5904 5906 5908 5909 5911 5911 5912 5913 5914 5916 5918 5919 5921 5922 5924
5803 5801 5800 5799 5798 5797 5796 5795 5795 5794 5793 5793 5792 5792 5792 5793 5794 5795 5796 5796 5798 5799 5801 5803 5804 5806 5808 5811 5813 5815 5820 5824 5826 5827 5828 5832 5835 5837 5840 5842 5845 5848 5852 5855 5857 5859 5861 5864 5866 5868 5871 5874 5878 5881 5881 5881 5882 5883 5886 5888 5889 5891 5892 5893 5895 5897 5899 5899 5899 5900 5901 5902 5902 5904 5905 5906 5908 5909 5911 5912 5913 5914 5916 5918 5919 5921 5922 5923
5799 5798 5796 5795 5794 5793 5792 5792 5791 5790 5789 5789 5789 5788 5788 5788 5790 5791 5792 5793 5794 5796 5797 5799 5800 5802 5804 5807 5809 5812 5816 5819 5822 5824 5826 5829 5832 5834 5837 5839 5842 5845 5849 5852 5854 5856 5858 5861 5864 5867 5871 5874 5877 5878 5877 5878 5881 5882 5885 5887 5888 5889 5890 5891 5894 5896 5897 5898 5899 5899 5900 5901 5902 5903 5904 5905 5907 5908 5910 5912 5912 5913 5915 5917 5919 5920 5921 5922
5796 5794 5793 5792 5790 5790 5789 5788 5787 5786 5786 5785 5785 5785 5784 5785 5785 5786 5787 5789 5790 5792 5793 5794 5796 5798 5800 5802 5804 5808 5811 5815 5819 5821 5822 5825 5828 5831 5834 5837 5840 5843 5847 5849 5850 5853 5856 5860 5863 5866 5870 5872 5873 5874 5875 5878 5880 5882 5884 5886 5886 5887 5888 5890 5893 5894 5895 5896 5898 5898 5899 5900 5901 5903 5903 5904 5905 5907 5909 5911 5912 5913 5915 5916 5918 5919 5920 5922
5793 5791 5790 5788 5787 5786 5786 5785 5784 5783 5782 5782 5781 5781 5780 5781 5781 5782 5783 5784 5786 5787 5789 5790 5792 5794 5797 5798 5800 5804 5808 5811 5815 5817 5819 5822 5826 5829 5831 5834 5837 5841 5843 5845 5847 5850 5854 5858 5861 5864 5867 5870 5870 5871 5874 5877 5879 5880 5882 5884 5884 5885 5887 5890 5892 5893 5894 5896 5897 5896 5897 5899 5900 5901 5902 5902 5904 5906 5908 5910 5912 5912 5914 5915 5917 5919 5920 5921
5789 5788 5787 5786 5784 5784 5783 5782 5781 5780 5779 5778 5778 5777 5777 5777 5777 5778 5779 5780 5782 5783 5785 5787 5788 5790 5792 5794 5798 5802 5805 5808 5811 5814 5816 5819 5823 5826 5829 5832 5835 5838 5840 5842 5846 5849 5854 5857 5859 5861 5865 5867 5868 5869 5872 5875 5878 5878 5879 5882 5883 5885 5887 5889 5891 5892 5894 5895 5896 5895 5896 5898 5899 5900 5901 5902 5903 5904 5906 5908 5910 5912 5913 5914 5916 5918 5920 5922
5786 5785 5784 5783 5782 5781 5780 5779 5778 5777 5776 5775 5775 5774 5774 5774 5774 5774 5775 5776 5778 5779 5781 5782 5784 5786 5788 5791 5795 5798 5800 5804 5807 5810 5814 5816 5819 5823 5825 5829 5832 5835 5837 5840 5844 5848 5852 5854 5856 5859 5862 5865 5866 5868 5870 5873 5876 5877 5878 5881 5882 5884 5886 5887 5890 5892 5893 5894 5895 5895 5895 5897 5898 5898 5900 5901 5902 5903 5905 5906 5908 5911 5913 5914 5915 5917 5919 5921
5783 5782 5781 5780 5779 5778 5777 5776 5775 5774 5773 5772 5771 5771 5771 5771 5771 5771 5772 5773 5774 5776 5777 5779 5780 5782 5785 5788 5791 5793 5797 5800 5804 5807 5810 5813 5816 5820 5822 5826 5830 5832 5835 5838 5841 5846 5849 5850 5853 5856 5859 5863 5865 5866 5868 5871 5874 5876 5877 5879 5881 5882 5884 5887 5890 5891 5892 5893 5894 5894 5894 5896 5897 5897 5899 5899 5900 5901 5903 5905 5907 5909 5912 5914 5915 5916 5918 5920
5780 5780 5779 5778 5777 5776 5775 5774 5773 5771 5770 5769 5769 5768 5768 5768 5768 5768 5769 5770 5771 5773 5774 5776 5778 5780 5782 5784 5787 5791 5795 5798 5801 5804 5807 5810 5814 5817 5819 5824 5827 5830 5833 5835 5839 5843 5846 5848 5851 5853 5856 5860 5863 5866 5867 5869 5872 5875 5876 5878 5879 5881 5884 5887 5888 5889 5891 5892 5892 5893 5894 5895 5896 5896 5897 5898 5899 5900 5901 5904 5906 5908 5911 5913 5914 5915 5917 5919
5778 5778 5777 5776 5775 5774 5773 5771 5770 5769 5768 5767 5766 5766 5765 5765 5765 5766 5767 5768 5770 5771 5772 5773 5775 5777 5779 5780 5784 5789 5792 5795 5798 5801 5804 5807 5810 5813 5817 5820 5824 5827 5829 5831 5836 5841 5844 5845 5848 5852 5854 5857 5860 5864 5866 5868 5871 5874 5875 5876 5878 5882 5884 5886 5887 5887 5889 5890 5891 5892 5893 5894 5895 5895 5896 5897 5898 5899 5900 5903 5905 5907 5910 5912 5912 5914 5917 5918
5777 5776 5775 5774 5773 5771 5770 5770 5769 5768 5766 5765 5764 5764 5763 5763 5763 5764 5766 5768 5769 5769 5770 5771 5773 5775 5777 5777 5781 5785 5788 5791 5795 5797 5800 5803 5807 5810 5814 5817 5820 5823 5825 5828 5833 5838 5841 5843 5847 5850 5852 5855 5858 5863 5866 5868 5871 5873 5874 5875 5879 5882 5883 5884 5884 5885 5887 5889 5890 5890 5892 5893 5894 5895 5896 5897 5898 5899 5900 5902 5904 5905 5908 5910 5912 5914 5916 5918
5775 5774 5773 5772 5771 5769 5769 5768 5767 5767 5765 5764 5763 5763 5762 5762 5762 5763 5765 5767 5768 5768 5769 5770 5771 5773 5774 5776 5779 5783 5785 5788 5791 5794 5796 5800 5804 5808 5812 5814 5817 5820 5822 5825 5830 5835 5838 5841 5845 5848 5851 5854 5857 5861 5865 5867 5870 5872 5872 5874 5877 5879 5880 5882 5883 5883 5886 5888 5888 5889 5891 5892 5894 5895 5896 5896 5897 5898 5900 5901 5902 5904 5906 5908 5910 5913 5915 5917
5773 5772 5771 5770 5769 5768 5767 5767 5766 5766 5764 5763 5763 5762 5762 5762 5762 5763 5765 5766 5767 5768 5769 5769 5770 5771 5773 5775 5778 5780 5782 5784 5788 5792 5794 5796 5801 5805 5809 5812 5815 5818 5821 5824 5829 5833 5836 5838 5841 5845 5849 5853 5855 5857 5861 5864 5868 5870 5871 5873 5875 5876 5878 5880 5881 5882 5883 5885 5887 5888 5890 5892 5893 5894 5895 5896 5897 5898 5899 5900 5901 5903 5905 5907 5909 5912 5914 5916
5772 5771 5770 5769 5768 5767 5766 5766 5765 5765 5763 5762 5762 5762 5761 5762 5762 5763 5765 5765 5766 5767 5768 5769 5770 5771 5773 5774 5776 5778 5780 5783 5786 5790 5792 5795 5798 5801 5805 5809 5813 5816 5819 5824 5828 5832 5834 5834 5837 5842 5847 5851 5852 5855 5858 5861 5866 5867 5869 5871 5873 5874 5876 5877 5878 5878 5881 5883 5885 5887 5889 5890 5891 5893 5894 5895 5897 5898 5898 5899 5900 5902 5904 5906 5908 5911 5913 5915
5771 5769 5768 5767 5766 5766 5765 5765 5764 5764 5762 5761 5762 5762 5762 5762 5762 5763 5764 5765 5766 5767 5768 5769 5769 5771 5772 5773 5775 5777 5780 5782 5785 5788 5790 5794 5797 5800 5803 5806 5810 5813 5817 5822 5826 5829 5831 5833 5835 5839 5843 5846 5849 5852 5855 5859 5863 5864 5866 5869 5870 5871 5873 5874 5875 5877 5879 5881 5883 5885 5886 5888 5889 5891 5893 5894 5896 5897 5898 5898 5899 5901 5903 5905 5907 5909 5912 5914
5769 5768 5767 5766 5766 5765 5765 5764 5763 5763 5762 5761 5762 5762 5762 5762 5763 5763 5764 5765 5766 5767 5768 5768 5769 5770 5771 5772 5774 5777 5778 5780 5783 5787 5789 5792 5795 5798 5801 5805 5809 5812 5816 5819 5823 5826 5829 5831 5834 5837 5839 5842 5846 5849 5853 5857 5860 5862 5864 5866 5866 5868 5870 5871 5874 5876 5877 5879 5880 5882 5884 5886 5888 5889 5891 5892 5893 5894 5896 5897 5898 5899 5901 5903 5905 5907 5909 5911
5768 5767 5766 5765 5765 5764 5764 5764 5763 5762 5762 5761 5762 5763 5763 5763 5763 5763 5764 5765 5766 5766 5768 5769 5769 5769 5771 5772 5774 5776 5778 5781 5783 5786 5789 5791 5794 5796 5800 5804 5808 5811 5813 5815 5819 5822 5826 5829 5832 5835 5837 5840 5844 5847 5850 5854 5857 5860 5862 5863 5865 5867 5868 5870 5873 5875 5876 5877 5879 5880 5881 5884 5886 5887 5889 5891 5892 5893 5894 5896 5897 5897 5899 5901 5902 5905 5907 5909
5767 5766 5765 5765 5765 5764 5764 5763 5762 5762 5761 5761 5762 5764 5764 5763 5764 5764 5765 5765 5765 5766 5767 5768 5769 5769 5771 5772 5774 5776 5779 5782 5784 5786 5788 5791 5793 5795 5799 5804 5807 5809 5811 5813 5816 5819 5823 5826 5830 5833 5836 5838 5842 5845 5847 5851 5855 5857 5859 5861 5864 5865 5867 5870 5873 5874 5874 5876 5877 5878 5879 5882 5885 5886 5888 5890 5891 5892 5893 5895 5897 5897 5898 5899 5900 5903 5905 5907
5766 5765 5765 5764 5764 5764 5763 5763 5762 5761 5761 5761 5763 5764 5764 5764 5764 5764 5765 5765 5765 5767 5767 5767 5769 5770 5771 5773 5775 5777 5779 5782 5784 5786 5788 5789 5791 5793 5797 5800 5803 5806 5808 5811 5815 5818 5821 5824 5828 5832 5836 5838 5840 5843 5846 5849 5853 5855 5856 5859 5862 5863 5866 5870 5871 5871 5871 5873 5874 5876 5877 5880 5883 5884 5885 5888 5890 5891 5892 5894 5896 5897 5897 5897 5899 5901 5903 5905
5765 5764 5764 5764 5763 5763 5763 5763 5762 5761 5761 5762 5763 5764 5764 5764 5763 5764 5764 5764 5765 5767 5767 5767 5769 5771 5772 5774 5776 5776 5778 5781 5783 5786 5787 5788 5789 5791 5793 5796 5799 5803 5805 5808 5812 5816 5819 5822 5825 5830 5834 5836 5838 5841 5844 5847 5850 5853 5855 5858 5860 5862 5865 5869 5868 5868 5868 5869 5872 5873 5875 5878 5880 5881 5884 5886 5888 5890 5891 5893 5894 5895 5896 5896 5898 5899 5901 5904
5764 5764 5764 5764 5763 5763 5763 5762 5762 5761 5761 5762 5763 5763 5763 5763 5763 5764 5765 5765 5765 5766 5767 5767 5769 5771 5772 5773 5774 5774 5775 5777 5779 5783 5785 5786 5787 5789 5791 5794 5797 5801 5804 5807 5810 5814 5818 5820 5823 5827 5831 5833 5835 5839 5843 5846 5849 5851 5853 5856 5858 5860 5864 5867 5866 5866 5866 5867 5870 5872 5873 5875 5878 5880 5883 5886 5887 5888 5890 5892 5894 5895 5895 5896 5897 5899 5901 5903
5764 5763 5763 5763 5762 5762 5762 5762 5762 5761 5762 5762 5763 5763 5762 5762 5762 5763 5764 5765 5765 5766 5766 5767 5768 5770 5771 5772 5773 5773 5772 5772 5774 5777 5780 5783 5785 5788 5790 5793 5797 5799 5803 5806 5809 5813 5816 5818 5821 5825 5827 5830 5834 5837 5841 5844 5847 5850 5853 5855 5857 5859 5862 5864 5864 5864 5865 5866 5868 5870 5872 5875 5877 5879 5882 5885 5886 5887 5888 5891 5893 5895 5896 5896 5896 5898 5900 5902
5764 5763 5762 5762 5762 5762 5762 5762 5761 5761 5762 5762 5762 5762 5761 5761 5761 5761 5762 5764 5765 5765 5765 5766 5767 5769 5770 5771 5772 5772 5771 5772 5774 5775 5777 5780 5783 5787 5790 5794 5797 5799 5802 5805 5808 5811 5813 5816 5819 5821 5824 5828 5832 5836 5839 5841 5844 5848 5852 5854 5856 5857 5859 5861 5862 5862 5862 5864 5867 5869 5871 5873 5876 5878 5880 5882 5884 5885 5887 5889 5891 5892 5894 5895 5895 5896 5898 5900
5763 5763 5763 5762 5762 5762 5762 5762 5761 5761 5762 5762 5762 5761 5761 5760 5761 5761 5761 5762 5764 5764 5764 5765 5766 5768 5769 5770 5771 5771 5772 5774 5776 5777 5778 5780 5782 5786 5789 5793 5796 5799 5802 5805 5807 5809 5812 5815 5816 5818 5823 5827 5830 5834 5838 5839 5842 5846 5850 5852 5853 5854 5857 5858 5859 5859 5861 5863 5865 5868 5870 5871 5873 5876 5878 5879 5881 5884 5885 5887 5889 5890 5891 5893 5894 5895 5896 5898
5762 5763 5763 5763 5763 5763 5762 5761 5761 5762 5762 5761 5761 5761 5761 5760 5760 5760 5760 5761 5763 5763 5763 5764 5766 5767 5769 5770 5770 5771 5773 5774 5777 5779 5780 5781 5782 5784 5787 5790 5793 5797 5800 5803 5805 5807 5811 5814 5815 5817 5822 5826 5830 5834 5836 5837 5839 5844 5848 5848 5849 5851 5854 5856 5857 5858 5859 5861 5863 5866 5868 5869 5870 5872 5875 5878 5881 5883 5883 5884 5887 5888 5889 5891 5894 5894 5895 5897
5762 5762 5762 5762 5762 5762 5761 5761 5761 5761 5761 5761 5760 5761 5761 5760 5760 5760 5760 5760 5762 5763 5763 5764 5765 5767 5768 5769 5770 5772 5773 5774 5776 5779 5781 5781 5782 5784 5786 5788 5792 5795 5798 5801 5803 5807 5810 5812 5814 5816 5820 5824 5828 5831 5832 5833 5836 5841 5844 5844 5845 5848 5850 5852 5854 5856 5857 5859 5861 5863 5865 5866 5868 5871 5873 5877 5879 5880 5881 5883 5885 5886 5888 5891 5893 5893 5894 5896
5761 5761 5761 5761 5761 5761 5761 5760 5761 5761 5760 5760 5760 5760 5760 5760 5759 5759 5759 5760 5761 5762 5762 5763 5764 5765 5766 5767 5769 5771 5772 5774 5776 5778 5779 5781 5783 5785 5786 5788 5791 5793 5796 5799 5802 5806 5809 5810 5812 5814 5816 5820 5824 5826 5828 5831 5835 5839 5841 5840 5842 5845 5847 5849 5852 5853 5855 5857 5859 5861 5863 5864 5867 5870 5873 5875 5877 5878 5880 5882 5884 5885 5887 5889 5891 5892 5892 5894
5761 5761 5760 5760 5760 5761 5760 5760 5760 5760 5760 5760 5760 5760 5760 5758 5759 5759 5759 5760 5760 5761 5761 5761 5762 5763 5764 5765 5766 5768 5770 5773 5774 5776 5778 5780 5782 5783 5785 5787 5789 5792 5795 5798 5801 5804 5807 5809 5811 5813 5814 5817 5819 5821 5824 5827 5832 5836 5837 5837 5840 5842 5843 5846 5849 5851 5852 5854 5856 5859 5861 5863 5865 5869 5872 5874 5876 5877 5878 5880 5882 5883 5885 5886 5889 5890 5892 5894
5761 5760 5760 5760 5760 5760 5761 5761 5760 5759 5759 5760 5760 5760 5759 5758 5758 5759 5759 5759 5760 5761 5761 5761 5761 5762 5762 5762 5763 5766 5769 5771 5773 5775 5776 5778 5779 5781 5783 5785 5788 5792 5794 5797 5800 5802 5805 5807 5809 5810 5813 5815 5817 5819 5822 5825 5829 5832 5832 5834 5836 5837 5839 5843 5845 5848 5849 5851 5854 5857 5858 5860 5863 5867 5871 5873 5875 5876 5876 5878 5880 5881 5882 5884 5886 5888 5891 5893
5761 5760 5760 5760 5760 5760 5760 5760 5759 5759 5759 5759 5759 5759 5759 5759 5758 5759 5759 5759 5760 5761 5761 5761 5761 5762 5763 5763 5763 5765 5768 5770 5772 5774 5775 5775 5777 5779 5781 5784 5788 5791 5794 5796 5798 5801 5804 5806 5807 5809 5812 5814 5816 5818 5821 5824 5826 5828 5829 5831 5832 5833 5837 5840 5843 5845 5847 5849 5852 5854 5855 5858 5861 5865 5869 5872 5874 5874 5874 5875 5877 5879 5880 5882 5884 5886 5888 5891
5760 5759 5759 5760 5759 5759 5759 5759 5758 5758 5759 5759 5758 5758 5759 5758 5758 5758 5759 5759 5759 5760 5760 5761 5762 5762 5763 5764 5765 5766 5768 5769 5770 5772 5773 5774 5776 5778 5779 5782 5787 5790 5793 5795 5797 5800 5802 5804 5806 5808 5809 5811 5815 5818 5820 5822 5824 5825 5827 5828 5830 5832 5835 5839 5841 5843 5846 5848 5850 5852 5854 5857 5860 5864 5867 5869 5872 5873 5872 5872 5875 5877 5878 5880 5882 5883 5886 5889
5759 5758 5758 5759 5758 5758 5758 5758 5758 5758 5758 5758 5758 5758 5758 5758 5758 5758 5759 5759 5759 5760 5760 5760 5762 5763 5763 5764 5765 5766 5768 5769 5770 5771 5772 5773 5774 5776 5778 5781 5784 5788 5791 5793 5795 5798 5800 5801 5804 5806 5807 5809 5814 5816 5817 5819 5821 5822 5824 5826 5829 5831 5835 5837 5839 5840 5843 5846 5848 5850 5853 5854 5857 5861 5864 5867 5869 5871 5871 5872 5873 5875 5877 5879 5880 5881 5884 5887
5758 5758 5758 5758 5758 5757 5757 5758 5758 5758 5758 5758 5758 5758 5759 5759 5758 5758 5759 5759 5760 5760 5760 5760 5763 5764 5764 5765 5765 5766 5768 5769 5769 5770 5771 5773 5774 5775 5777 5779 5782 5785 5788 5791 5792 5795 5798 5799 5802 5804 5806 5809 5812 5814 5815 5817 5819 5821 5823 5825 5826 5829 5833 5836 5837 5839 5842 5843 5845 5848 5850 5852 5855 5859 5862 5865 5867 5869 5871 5871 5872 5874 5876 5878 5879 5880 5882 5884
5758 5758 5758 5758 5757 5757 5757 5757 5758 5758 5758 5758 5758 5758 5759 5759 5759 5759 5759 5759 5760 5760 5760 5761 5763 5764 5764 5765 5766 5767 5768 5769 5769 5770 5771 5773 5774 5776 5778 5779 5781 5783 5785 5787 5789 5792 5795 5797 5800 5803 5806 5808 5810 5812 5814 5816 5819 5822 5823 5824 5825 5828 5832 5834 5835 5838 5840 5842 5844 5846 5848 5850 5853 5857 5860 5862 5864 5867 5869 5870 5870 5872 5874 5876 5877 5878 5879 5881
5757 5757 5757 5757 5756 5756 5756 5757 5757 5757 5757 5757 5757 5758 5759 5759 5759 5759 5759 5760 5760 5760 5760 5761 5762 5763 5763 5764 5765 5766 5767 5768 5769 5770 5771 5773 5774 5776 5777 5778 5780 5782 5783 5785 5787 5789 5792 5795 5798 5801 5804 5806 5807 5809 5812 5815 5819 5822 5823 5824 5824 5826 5830 5832 5833 5836 5838 5840 5843 5845 5847 5848 5851 5854 5857 5859 5861 5864 5867 5868 5869 5871 5873 5874 5875 5876 5878 5879